Voltar ao catálogo

CHUTIAN XINGZUO 2-02 XING

AtivoComunicaçõesSSO
NORAD 66410·PAYLOAD·🇨🇳 China
Este nome de satélite ainda não foi confirmado por fontes oficiais.

Lançado Nov 9, 2025 de Jiuquan Satellite Launch Center

Loading…

Próximas Passagens (próximas 24 horas)

TLE

AtualizadoSource: Space-Track

Época: Sep 13, 2026, 17:47 UTC

1 66410U 25256B   26256.74130729  .00000325  00000-0  94530-4 0  9996
2 66410  98.2458 321.2336 0014984  66.9617 293.3156 14.50265738 44734

Acompanhe CHUTIAN XINGZUO 2-02 XING em tempo real com AllMySat

Download on the App Store